Вернуться в каталог

COSMOS 2501

GLONASS

АктивенНавигацияMEO
NORAD 40315·PAYLOAD·🇷🇺 Russia

Запущен Nov 30, 2014 с Plesetsk Cosmodrome

Loading…

Ближайшие Пролёты (ближайшие 24 часа)

TLE

СвежийSource: CelesTrak SupGP

Эпоха: Sep 14, 2026, 23:59 UTC

1 40315C 14075A   26257.99979167  .00000000  00000+0  00000+0 0  2574
2 40315  63.6167 187.2655 0021921 209.5507 204.4720  2.13101465    14

Отслеживайте COSMOS 2501 в реальном времени с AllMySat

Download on the App Store